Weather WX

World > North America > United States > New York

Alfred, New York Regional Weather

Lat: 42.25N, Lon: 77.79W
Wx Zone: NYZ021
Warning FLW WEATHER ALERT - (More Info. Click Here) Warning
Feedback

Alfred, NY Regional Weather

Expires:201907182300;;271756
ASUS41 KALY 182210
RWRALY

NEW YORK STATE HOURLY WEATHER ROUNDUP
NATIONAL WEATHER SERVICE ALBANY NY
600 PM EDT THU JUL 18 2019

NOTE: "FAIR" INDICATES FEW OR NO CLOUDS BELOW 12,000 FEET WITH NO
SIGNIFICANT WEATHER AND/OR NO OBSTRUCTIONS TO VISIBILITY.


NYZ001>004-010>016-019>021-085-182300-
WEST

  
CITY           SKY/WX    TMP DP  RH WIND       PRES   REMARKS
NIAGARA FALLS  FAIR      83  69  62 S12       29.86F                  
BUFFALO        FAIR      83  68  60 SW8       29.87F                  
DUNKIRK        FAIR      82  70  66 W7        29.89F                  
JAMESTOWN      PTSUNNY   79  68  69 W3        29.96F                  
WELLSVILLE     FAIR      82  64  54 VRB6      29.98F                  
ROCHESTER      FAIR      83  69  62 NE6       29.88F                  
PENN YAN       FAIR      84  67  56 VRB5      29.91F                  
$$

             KEY
       WCI = WIND CHILL INDEX
       VSB = VISIBILITY
       HX  = HEAT INDEX
$$
  

SKY/WX - Weather  TMP - Temperature  DP - Dew Point  RH - Relative Humidity
WIND - Wind Direction/Speed PRES - Barometric Pressure VSB - Visibility
WCI - Wind Chill Index E13G22 Wind - East Wind 13 mph/Gusts of 22 mph